SL-16 R/B (23705 NORAD) Tracking and Keplerian Element Data

This shows tracking and keplerian element data for the satellite.

Feedback or suggestion? Click here.




ElementValue
Catalog23705
NameSL-16 R/B
Epoch Orbit45685
Epoch Day13.12143749
Epoch Year2024
RAAN31.3898
Inclination71.0224
Eccentricity0.0014743
Argument of Perigee243.741
Mean Anonmoly116.2199
Mean Motion14.15280708
Decay Rate-1.32E-06
L11 23705U 95058B 24013.12143749 -.00000132 00000+0 -43470-4 0 9994
L22 23705 71.0224 31.3898 0014743 243.7410 116.2199 14.15280708456850



Live tracking and technical data element details for SL-16 R/B (NORAD 23705). SL-16 R/B can be tracked NOW for your location showing map with azimuth and elevation plus other details from your city location.







IsCatalogInMostPopularTable: catalog: 23705, numindb: 393
Update: records affected: 1



GetName: 23705 SL-16 R/B

Hit Count: updated at: Mon, 15 Apr 2024 00:31:57 GMT